N6ROE Weather Reports


time (UTC)temp
C
wind
direction
speed
KPH
gust
KPH
rain 1hr
cm
rain 24hr
cm
rain mn
cm
humidity
%
barometer
mb
20260506160016 24 26 8.0 11.3 0.00 0.00 0.00 93 1010.5
20260506155016 23 40 4.8 11.3 0.00 0.00 0.00 94 1010.3
20260506154017 23 28 4.8 8.0 0.00 0.00 0.00 94 1010.2
20260506153016 23 40 3.2 6.4 0.00 0.00 0.00 94 1009.9
20260506152018 23 54 3.2 9.7 0.00 0.00 0.00 94 1009.7
20260506151017 23 45 3.2 8.0 0.00 0.00 0.00 94 1009.7
20260506150037 23 46 3.2 8.0 0.00 0.00 0.00 93 1009.6
20260506145017 23 45 3.2 8.0 0.00 0.00 0.00 93 1009.5
20260506144017 23 46 3.2 9.7 0.00 0.00 0.00 93 1009.5
20260506143019 23 28 3.2 4.8 0.00 0.00 0.00 93 1009.6
20260506142018 23 76 4.8 9.7 0.00 0.00 0.00 93 1009.1
20260506141018 23 85 3.2 8.0 0.00 0.00 0.00 93 1009.0
20260506140018 23 130 4.8 9.7 0.00 0.00 0.00 93 1008.8
20260506135018 23 130 3.2 6.4 0.00 0.00 0.00 94 1008.6
20260506134015 23 109 4.8 9.7 0.00 0.00 0.00 94 1008.4
20260506133015 23 110 6.4 11.3 0.00 0.00 0.00 94 1008.3
20260506132016 23 115 4.8 9.7 0.00 0.00 0.00 94 1008.3
20260506131017 23 130 4.8 9.7 0.00 0.00 0.00 95 1008.3
20260506130036 23 126 4.8 8.0 0.00 0.00 0.00 95 1008.2
20260506125016 23 126 3.2 8.0 0.00 0.00 0.00 95 1008.2
20260506124017 23 163 3.2 6.4 0.00 0.00 0.00 95 1008.3
20260506123017 23 145 4.8 8.0 0.00 0.00 0.00 95 1008.3
20260506122037 23 148 4.8 9.7 0.00 0.00 0.00 95 1008.2
20260506121017 23 148 4.8 9.7 0.00 0.00 0.00 95 1008.1
20260506120057 23 147 6.4 12.9 0.00 0.00 0.00 95 1008.0
20260506115017 23 143 3.2 9.7 0.00 0.00 0.00 95 1008.0
20260506114017 23 182 8.0 11.3 0.00 0.00 0.00 95 1008.0
20260506113018 23 160 3.2 6.4 0.00 0.00 0.00 95 1008.0
20260506112018 23 178 4.8 9.7 0.00 0.00 0.00 95 1007.9
20260506111018 23 172 4.8 8.0 0.00 0.00 0.00 95 1008.0
20260506110018 23 179 6.4 9.7 0.00 0.00 0.00 95 1007.9
20260506105035 23 183 6.4 9.7 0.00 0.00 0.00 94 1007.8
20260506104055 23 178 3.2 8.0 0.00 0.00 0.00 94 1007.9
20260506103035 23 185 4.8 9.7 0.00 0.00 0.00 94 1007.8
20260506102056 23 186 6.4 9.7 0.00 0.00 0.00 94 1007.8
20260506101016 23 193 9.7 14.5 0.00 0.00 0.00 94 1007.8
20260506100016 23 182 6.4 8.0 0.00 0.00 0.00 93 1007.7
20260506095037 23 192 6.4 11.3 0.00 0.00 0.00 93 1007.6
20260506094016 23 193 8.0 11.3 0.00 0.00 0.00 93 1007.5
20260506093017 23 183 8.0 12.9 0.00 0.00 0.00 93 1007.3
20260506092017 23 189 11.3 17.7 0.00 0.00 0.00 92 1007.2
20260506091017 23 172 8.0 14.5 0.00 0.00 0.00 92 1007.5
20260506090017 23 185 9.7 16.1 0.00 0.00 0.00 92 1007.6
20260506085017 23 187 8.0 14.5 0.00 0.00 0.00 91 1007.6
20260506084017 23 188 9.7 14.5 0.00 0.00 0.00 91 1007.5
20260506083017 23 189 6.4 9.7 0.00 0.00 0.00 91 1007.6
20260506082019 23 179 8.0 12.9 0.00 0.00 0.00 90 1007.4
20260506081018 23 184 6.4 9.7 0.00 0.00 0.00 90 1007.5
20260506073016 24 191 9.7 14.5 0.00 0.00 0.00 89 1007.8
20260506072036 24 187 9.7 14.5 0.00 0.00 0.00 89 1008.0
20260506071036 24 183 9.7 16.1 0.00 0.00 0.00 90 1008.1
20260506062017 24 191 6.4 9.7 0.00 0.00 0.00 90 1008.3
20260506061037 24 177 6.4 9.7 0.00 0.00 0.00 90 1008.2
20260506051038 24 169 8.0 16.1 0.00 0.00 0.00 89 1008.1
20260506045016 24 153 8.0 14.5 0.00 0.00 0.00 89 1008.1
20260506044015 24 141 6.4 12.9 0.00 0.00 0.00 89 1008.2
20260506043016 24 166 4.8 9.7 0.00 0.00 0.00 89 1008.1
20260506042016 24 161 6.4 12.9 0.00 0.00 0.00 89 1008.1
20260506041016 25 175 6.4 12.9 0.00 0.00 0.00 89 1007.9
20260506040016 25 166 6.4 11.3 0.00 0.00 0.00 88 1007.9
20260506035016 25 148 8.0 16.1 0.00 0.00 0.00 88 1007.9
20260506034017 25 157 6.4 12.9 0.00 0.00 0.00 88 1007.6
20260506033017 25 159 8.0 12.9 0.00 0.00 0.00 87 1007.4
20260506032017 25 158 6.4 11.3 0.00 0.00 0.00 87 1007.4
20260506031017 25 158 8.0 16.1 0.00 0.00 0.00 86 1007.2
20260506030037 25 151 6.4 14.5 0.00 0.00 0.00 86 1007.0
20260506025018 25 146 6.4 14.5 0.00 0.00 0.00 85 1006.8
20260506024018 26 139 6.4 12.9 0.00 0.00 0.00 84 1006.7
20260506023018 26 149 6.4 14.5 0.00 0.00 0.00 83 1006.5
20260506022018 26 152 8.0 17.7 0.00 0.00 0.00 82 1006.5
20260506021015 26 147 6.4 14.5 0.00 0.00 0.00 81 1006.3
20260506020036 27 162 8.0 14.5 0.00 0.00 0.00 80 1006.2
20260506015016 27 162 6.4 19.3 0.00 0.00 0.00 78 1006.2
20260506014016 27 138 6.4 12.9 0.00 0.00 0.00 76 1005.9
20260506013016 27 145 3.2 11.3 0.00 0.00 0.00 74 1005.9
20260506012016 28 128 4.8 9.7 0.00 0.00 0.00 74 1005.7
20260506011016 28 105 4.8 6.4 0.00 0.00 0.00 73 1005.7
20260506010017 28 135 6.4 12.9 0.00 0.00 0.00 73 1005.5
20260506005017 28 145 3.2 8.0 0.00 0.00 0.00 73 1005.5
20260506004016 28 124 4.8 9.7 0.00 0.00 0.00 73 1005.5
20260506003017 28 146 4.8 9.7 0.00 0.00 0.00 72 1005.4
20260506002017 28 144 3.2 8.0 0.00 0.00 0.00 71 1005.4
20260506001017 28 149 4.8 9.7 0.00 0.00 0.00 71 1005.3
20260506000017 28 169 6.4 12.9 0.00 0.00 0.00 71 1005.2
20260505235018 29 152 8.0 14.5 0.00 0.00 0.00 70 1005.1
20260505234038 28 153 8.0 16.1 0.00 0.00 0.00 70 1005.0
20260505233018 28 185 6.4 11.3 0.00 0.00 0.00 69 1004.9
20260505232018 29 163 8.0 11.3 0.00 0.00 0.00 69 1005.0
20260505231015 29 161 6.4 14.5 0.00 0.00 0.00 68 1004.8
20260505230016 29 177 8.0 14.5 0.00 0.00 0.00 69 1004.8
20260505225036 28 192 8.0 16.1 0.00 0.00 0.00 69 1005.0
20260505224016 28 151 6.4 11.3 0.00 0.00 0.00 69 1005.1
20260505223036 29 177 8.0 16.1 0.00 0.00 0.00 69 1005.1
20260505222016 29 149 4.8 14.5 0.00 0.00 0.00 69 1005.1
20260505221016 29 192 9.7 14.5 0.00 0.00 0.00 69 1005.1
20260505220036 28 198 8.0 12.9 0.00 0.00 0.00 69 1005.3
20260505215017 28 187 9.7 16.1 0.00 0.00 0.00 69 1005.4
20260505214057 28 156 8.0 16.1 0.00 0.00 0.00 69 1005.4
20260505213017 28 177 8.0 14.5 0.00 0.00 0.00 70 1005.6
20260505212017 28 191 12.9 19.3 0.00 0.00 0.00 70 1005.8
20260505211017 28 174 8.0 14.5 0.00 0.00 0.00 71 1005.9
20260505210038 28 180 9.7 16.1 0.00 0.00 0.00 69 1006.1
20260505205018 28 199 11.3 17.7 0.00 0.00 0.00 70 1006.2
20260505204018 27 193 9.7 16.1 0.00 0.00 0.00 71 1006.4
20260505203018 27 191 8.0 17.7 0.00 0.00 0.00 72 1006.5
20260505202015 27 178 8.0 14.5 0.00 0.00 0.00 72 1006.7
20260505201016 27 184 8.0 12.9 0.00 0.00 0.00 73 1006.8
20260505200055 27 212 9.7 16.1 0.00 0.00 0.00 74 1006.7
20260505195016 27 198 11.3 20.9 0.00 0.00 0.00 74 1006.9
20260505194036 27 193 8.0 12.9 0.00 0.00 0.00 75 1007.0
20260505193016 26 167 6.4 9.7 0.00 0.00 0.00 77 1007.1
20260505170515 23 197 11.3 19.3 0.00 0.00 0.00 85 1008.4
20260505165516 23 204 8.0 17.7 0.00 0.00 0.00 87 1008.3
20260505164537 23 224 9.7 16.1 0.00 0.00 0.00 88 1008.4
20260505163517 23 224 12.9 17.7 0.00 0.00 0.00 88 1008.4
20260505162517 23 197 12.9 19.3 0.00 0.00 0.00 89 1008.4
20260505161537 22 194 14.5 24.1 0.00 0.00 0.00 89 1008.3
20260505160538 22 212 14.5 20.9 0.00 0.00 0.00 89 1008.3